Tracking 19709 objects as of 19-Jun-2019
HD Live streaming from Space Station
objects crossing your sky now

CBERS 1 DEB


CBERS 1 DEB is no longer on orbit


NORAD ID: 31587
Int'l Code: 1999-057PJ
Perigee: N/A
Apogee: N/A
Inclination: N/A
Period: N/A
Semi major axis: N/A
RCS: N/A
Launch date: October 14, 1999
Source: China/Brazil (CHBZ)
Launch site: Taiyaun Space Center, China (TSC)
Decay date: 2017-08-06

Note: This is SATELLITE DEBRIS
aabbcc
Your satellite tracking list
Your tracking list is empty




NASA's NSSDC Master Catalog

Two Line Element Set (TLE):
1 31587U 99057PJ  17212.15688562 +.01033640 +44167-3 +39185-2 0  9998
2 31587 098.1983 283.7584 0015045 257.2352 102.7236 15.87514821547056
Source of the keplerian elements: AFSPC